TimeCST,TemperatureF,Dew PointF,Humidity,Sea Level PressureIn,VisibilityMPH,Wind Direction,Wind SpeedMPH,Gust SpeedMPH,PrecipitationIn,Events,Conditions,WindDirDegrees,DateUTC
12:53 AM,30.9,21.9,69,30.38,10.0,NNW,9.2,-,N/A,,Clear,340,2013-01-17 06:53:00
1:53 AM,30.0,21.9,72,30.40,10.0,NW,6.9,-,N/A,,Clear,310,2013-01-17 07:53:00
2:53 AM,28.0,21.0,75,30.43,10.0,WNW,8.1,-,N/A,,Clear,290,2013-01-17 08:53:00
3:53 AM,28.9,21.0,72,30.43,10.0,WNW,6.9,-,N/A,,Clear,300,2013-01-17 09:53:00
4:53 AM,28.9,21.0,72,30.43,10.0,NW,8.1,-,N/A,,Clear,310,2013-01-17 10:53:00
5:53 AM,26.6,19.4,74,30.43,10.0,NW,8.1,-,N/A,,Clear,320,2013-01-17 11:53:00
6:53 AM,27.0,19.9,75,30.48,10.0,NW,8.1,-,N/A,,Clear,310,2013-01-17 12:53:00
7:53 AM,27.0,19.0,72,30.51,10.0,NW,9.2,-,N/A,,Clear,320,2013-01-17 13:53:00
8:53 AM,30.9,19.9,64,30.53,10.0,North,5.8,-,N/A,,Clear,360,2013-01-17 14:53:00
9:53 AM,36.0,24.1,62,30.56,10.0,NW,4.6,-,N/A,,Clear,320,2013-01-17 15:53:00
10:53 AM,43.0,25.0,49,30.56,10.0,East,3.5,-,N/A,,Clear,90,2013-01-17 16:53:00
11:53 AM,46.9,21.9,37,30.52,10.0,Calm,Calm,-,N/A,,Clear,0,2013-01-17 17:53:00
12:53 PM,48.9,19.9,32,30.48,10.0,SE,4.6,-,N/A,,Clear,140,2013-01-17 18:53:00
1:53 PM,52.0,19.0,27,30.44,10.0,Variable,4.6,-,N/A,,Clear,0,2013-01-17 19:53:00
2:53 PM,52.0,19.9,28,30.42,10.0,SSW,9.2,-,N/A,,Clear,200,2013-01-17 20:53:00
3:53 PM,53.1,19.0,26,30.41,10.0,South,10.4,-,N/A,,Clear,190,2013-01-17 21:53:00
4:53 PM,51.1,19.9,29,30.42,10.0,South,11.5,-,N/A,,Clear,190,2013-01-17 22:53:00
5:53 PM,45.0,19.9,37,30.44,10.0,South,9.2,-,N/A,,Clear,170,2013-01-17 23:53:00
6:53 PM,37.0,19.9,50,30.46,10.0,SSE,5.8,-,N/A,,Clear,160,2013-01-18 00:53:00
7:53 PM,34.0,19.0,54,30.46,10.0,South,6.9,-,N/A,,Clear,170,2013-01-18 01:53:00
8:53 PM,33.1,19.0,56,30.46,10.0,South,5.8,-,N/A,,Clear,180,2013-01-18 02:53:00
9:53 PM,30.0,19.0,64,30.45,10.0,South,9.2,-,N/A,,Clear,190,2013-01-18 03:53:00
10:53 PM,32.0,21.0,64,30.41,10.0,SSW,9.2,-,N/A,,Clear,200,2013-01-18 04:53:00
11:53 PM,28.0,21.0,75,30.40,10.0,SSW,9.2,-,N/A,,Clear,200,2013-01-18 05:53:00